Theta_e
309 310 310 310 309 309 310 310 310 311 311 311 311 312 312 312 312 313 313 313 313 313 314 314 314 314 314 314 314 314 314 314 314 315 315 315 314 314 314 314 315 315 316 316 316 316 316 316 315 315 315 315 315 316 316 318 318 319 325 324 321 324 323 322 323 317 316 322 318 314 313 313 316 315 314 315 315 315 316 316 316 316 316 316 316 316 316 316
309 309 310 310 310 310 310 310 310 310 311 311 312 312 312 313 313 313 313 313 313 314 314 314 314 314 314 314 314 314 314 314 314 315 316 315 315 315 315 314 314 315 315 315 315 315 316 316 315 315 315 315 316 316 317 317 317 321 324 320 324 329 321 316 317 313 313 317 315 314 314 312 314 314 313 314 314 314 315 316 315 315 316 316 316 316 316 316
309 309 310 310 310 310 310 310 310 310 310 311 311 311 312 312 313 313 313 313 313 314 314 314 314 314 314 314 314 314 314 314 314 315 315 314 315 316 316 314 314 314 315 315 315 315 315 315 315 314 315 315 316 317 317 317 318 319 318 322 329 324 314 312 314 313 315 315 313 314 314 312 314 313 313 313 313 314 314 315 315 314 316 316 316 316 316 316
309 309 309 309 310 310 310 310 310 310 310 310 311 311 311 312 312 312 313 313 313 313 313 313 314 314 314 314 314 314 314 314 314 315 316 314 314 316 316 315 314 314 315 315 314 314 314 314 315 314 314 314 314 316 317 317 319 317 317 326 325 314 314 317 315 316 315 314 312 313 313 312 314 313 312 312 313 315 315 315 316 315 316 316 316 315 315 315
309 309 309 310 310 310 310 310 310 310 310 310 310 311 311 311 311 312 312 312 313 313 313 313 313 313 313 313 314 314 313 316 317 316 316 315 314 315 315 315 314 315 315 315 315 315 314 313 315 314 314 314 314 316 316 316 317 317 317 320 317 312 316 317 315 317 315 314 313 311 313 314 313 313 312 312 314 316 315 316 316 316 316 316 316 315 315 315
309 309 309 309 310 310 310 310 310 310 310 310 311 311 311 311 311 311 311 312 312 312 312 312 313 313 313 313 313 313 313 315 316 315 315 314 314 315 316 315 314 315 315 315 315 315 314 313 315 315 313 313 314 316 315 315 316 318 318 316 315 315 315 316 316 316 315 314 312 312 314 314 312 313 313 312 313 316 316 316 316 315 316 315 315 315 315 315
309 309 310 310 310 310 310 310 310 310 311 311 311 311 311 311 311 311 311 311 311 312 312 312 312 312 312 312 313 313 313 314 315 314 314 314 315 315 316 315 315 315 315 315 315 315 314 313 314 314 314 313 313 314 314 314 314 317 319 314 315 316 314 316 316 316 316 314 314 314 314 313 313 314 313 311 313 315 315 315 315 315 315 315 315 315 315 315
311 311 311 311 311 311 311 312 312 312 312 312 312 312 312 312 312 313 313 313 313 313 313 313 313 313 313 313 313 313 313 315 315 315 315 314 315 315 315 315 314 315 315 315 315 315 315 314 314 313 314 314 313 313 313 313 314 316 318 314 314 315 315 316 315 314 315 314 315 314 312 313 314 313 311 311 313 314 315 315 315 315 315 315 315 315 314 314
312 312 312 312 312 312 312 312 312 313 313 312 312 313 313 313 313 314 314 314 314 314 314 314 314 314 314 313 313 313 313 316 316 315 315 315 315 315 315 314 315 315 314 315 315 315 315 314 314 314 313 313 313 313 312 313 315 315 316 314 313 314 314 314 314 314 313 313 313 312 312 313 313 311 311 312 314 315 315 314 315 314 314 315 314 314 314 314
314 314 314 314 314 314 314 314 314 314 314 314 314 314 314 314 314 314 314 314 314 314 313 313 312 312 313 313 312 313 315 316 315 316 315 315 315 315 315 315 315 315 314 315 315 315 315 314 314 313 313 312 312 312 311 313 314 313 313 312 312 312 312 311 311 312 312 312 311 311 313 312 311 310 311 313 313 314 314 314 314 314 314 314 314 314 314 314
317 317 317 317 317 317 317 317 317 317 317 317 317 318 318 318 318 318 318 318 317 317 316 315 314 312 311 311 311 312 315 315 315 315 315 315 315 315 315 315 315 315 314 315 315 315 315 315 313 312 313 312 312 311 311 312 312 311 311 312 311 310 311 310 310 310 310 311 310 310 311 310 310 310 312 313 313 313 313 314 313 314 314 314 314 314 314 314
318 319 319 319 319 319 319 319 319 319 319 319 320 321 321 322 322 322 323 322 322 321 320 320 318 316 313 310 311 312 313 313 313 314 314 315 315 315 314 314 314 314 314 314 315 315 314 314 313 312 313 312 311 310 311 312 311 310 311 313 313 311 311 311 310 310 309 310 310 309 310 312 312 312 314 313 313 312 312 313 313 314 314 314 314 314 314 314
317 317 318 317 317 318 318 318 318 317 317 318 318 318 318 319 319 319 319 319 320 321 321 321 321 321 316 313 315 316 314 312 312 313 313 314 314 315 314 314 314 314 314 314 314 314 313 313 312 312 312 311 311 310 311 310 309 311 310 311 313 312 313 311 309 309 308 310 310 309 311 315 315 312 313 313 312 311 311 312 313 314 314 314 314 314 314 314
314 314 314 314 314 314 314 314 314 313 313 313 313 313 314 314 313 314 314 314 314 315 316 318 319 320 317 317 321 319 317 315 313 312 312 312 313 313 313 313 313 313 314 313 314 314 312 311 310 311 311 311 312 310 312 310 311 313 309 311 313 312 316 313 308 307 309 310 308 310 312 313 314 312 313 313 310 311 311 312 313 313 313 314 314 314 314 314
312 312 312 312 312 312 312 312 311 311 311 311 311 312 312 312 312 312 312 312 312 311 312 313 315 316 315 318 321 319 318 317 315 314 312 312 312 312 312 313 313 313 313 313 314 313 311 310 310 310 311 311 311 311 315 316 319 319 311 315 317 312 316 315 308 306 310 311 307 309 313 312 311 312 313 313 310 310 310 311 312 312 312 313 312 313 313 313
311 311 311 311 311 311 311 311 311 311 311 311 312 312 312 312 312 312 312 312 312 311 310 311 312 313 314 316 317 317 318 318 317 316 315 313 312 312 312 312 312 313 313 313 313 311 311 311 310 311 310 311 312 315 316 316 322 321 312 315 317 313 313 313 311 307 307 310 307 309 312 312 312 312 313 313 311 309 309 309 310 311 311 311 312 312 312 312
311 311 310 311 311 311 311 311 312 312 313 313 312 313 313 312 312 312 312 312 312 312 310 311 312 311 313 314 314 315 316 316 316 315 314 313 312 313 313 313 313 313 312 312 312 311 311 312 311 312 311 310 313 316 316 314 317 318 313 313 315 314 312 311 314 309 305 309 310 309 309 310 311 311 311 312 311 310 308 308 309 310 310 311 311 310 311 311
312 313 313 313 313 314 314 314 315 315 315 315 314 315 314 313 313 312 313 313 313 312 311 311 311 312 315 314 313 315 315 315 315 314 313 312 313 313 313 313 313 313 312 311 311 311 311 310 310 314 313 311 312 314 316 316 316 317 316 315 313 313 311 311 313 311 309 311 311 310 308 308 309 309 308 310 311 309 308 309 309 310 310 310 311 310 311 311
315 315 315 316 316 317 316 317 318 318 319 319 319 318 315 314 314 314 314 313 312 313 314 313 312 314 317 315 314 315 314 314 314 313 313 313 313 313 313 313 313 312 311 312 312 310 310 310 310 314 314 312 312 312 314 315 314 314 314 313 313 312 312 312 311 310 309 310 309 309 309 309 309 308 308 309 310 309 309 309 309 310 310 310 310 311 311 311
317 317 317 317 318 318 318 319 320 321 322 322 322 321 318 316 316 315 313 314 315 315 314 313 313 313 314 313 314 314 313 314 314 313 313 313 313 313 313 312 312 311 311 315 315 309 309 313 313 314 314 313 312 311 311 312 312 311 311 312 312 311 310 310 311 309 307 308 310 310 310 309 309 309 308 309 309 308 308 309 309 310 310 310 311 312 313 312
320 320 320 319 320 320 320 320 321 322 322 322 322 323 320 316 316 315 314 316 319 318 316 316 315 313 314 314 313 313 313 313 314 313 313 314 313 313 313 311 312 312 310 312 312 308 309 313 314 314 313 312 313 311 310 311 311 311 311 312 311 310 310 309 310 310 307 308 310 311 310 309 309 309 308 309 309 309 309 309 309 310 310 311 311 312 313 312
323 324 323 323 323 322 322 322 323 322 322 322 322 322 322 319 317 316 313 313 317 320 320 320 319 317 318 318 314 312 312 312 313 313 313 313 313 313 312 312 314 315 310 309 311 311 311 312 312 311 310 311 314 313 310 311 311 312 311 311 311 311 311 310 310 311 308 308 311 312 310 309 309 309 309 309 309 309 309 309 310 311 310 310 312 313 312 312
324 324 325 325 325 324 324 324 323 322 321 322 322 322 322 321 318 315 313 312 315 319 321 321 319 318 319 318 315 312 311 311 312 312 313 312 312 312 311 311 313 315 313 312 314 314 314 315 311 308 307 309 313 312 312 311 311 312 311 311 312 311 311 312 311 312 310 308 310 310 308 309 310 310 309 309 309 309 310 310 310 310 310 312 313 313 312 312
324 324 325 325 324 324 324 324 323 322 321 321 322 322 322 321 318 315 312 312 314 316 318 318 315 314 315 314 313 312 310 311 311 311 312 312 312 312 311 311 312 314 312 312 313 313 315 314 308 307 308 310 311 310 310 311 311 312 312 311 312 311 311 311 311 312 311 311 311 310 311 314 314 314 315 311 309 309 308 309 309 311 314 314 313 313 311 311
324 324 324 323 323 323 322 323 322 321 321 322 322 322 322 321 318 315 312 314 318 317 315 314 312 312 312 311 312 311 310 310 310 310 311 312 312 312 311 310 311 314 313 311 312 311 312 310 307 310 311 309 310 310 311 313 311 311 313 312 311 311 311 311 311 310 311 314 313 310 313 317 316 318 321 318 317 314 310 310 311 313 315 313 312 313 311 310
324 324 323 323 324 323 321 321 321 321 320 322 322 321 322 321 319 316 312 316 323 319 313 312 312 312 310 310 310 310 312 313 310 310 311 311 312 311 311 310 309 313 313 311 310 310 312 309 308 313 314 311 310 310 313 313 310 312 315 315 312 311 311 312 311 310 314 316 311 311 316 316 314 317 320 320 321 319 315 315 313 311 311 311 312 312 309 310
324 324 323 323 323 322 320 319 320 320 320 322 322 321 322 321 318 314 314 320 324 318 314 312 311 311 310 309 310 310 314 315 310 310 310 311 311 310 312 312 309 310 308 309 312 312 312 310 309 311 313 314 312 311 313 311 310 314 314 316 316 313 313 312 310 311 313 313 311 312 314 313 314 315 316 316 316 318 317 317 313 309 310 311 312 311 309 310
324 323 322 322 322 320 319 321 321 319 320 321 322 322 321 320 317 314 318 327 325 315 313 312 310 311 310 309 309 309 310 310 309 311 310 311 311 309 311 311 311 313 308 309 315 311 310 313 312 313 313 313 314 314 314 311 312 315 311 311 314 313 312 311 311 312 311 311 313 312 311 315 317 314 314 313 315 320 318 315 313 310 312 313 313 312 309 310
322 321 321 321 320 319 318 322 322 320 320 321 321 322 321 320 316 314 320 325 322 315 313 312 311 311 309 309 309 308 308 309 309 311 310 311 311 309 310 309 308 312 308 307 314 310 308 311 310 314 316 314 315 316 315 313 313 311 308 310 313 312 312 311 312 314 315 315 314 313 313 316 319 317 316 314 315 321 318 315 315 311 311 315 315 311 309 310
319 319 319 320 319 319 318 319 320 320 320 320 321 323 321 320 317 319 323 322 319 316 312 311 311 309 309 311 311 308 308 309 309 310 309 310 310 309 310 308 306 312 311 308 312 311 307 306 306 311 313 313 315 311 307 310 309 305 308 314 315 314 313 314 315 315 316 317 314 315 315 315 319 319 319 318 318 321 318 316 318 314 311 314 314 309 308 311
318 318 318 318 318 318 318 318 319 319 320 320 322 322 320 320 320 323 325 320 318 318 313 312 312 311 312 313 314 312 309 307 307 309 311 310 310 309 309 309 309 315 317 312 313 311 307 307 309 311 308 307 312 309 304 304 303 306 314 316 315 316 315 316 317 315 316 318 316 315 314 313 318 318 317 320 319 317 317 316 320 318 313 314 313 307 308 311
318 318 317 318 317 317 317 317 318 319 319 319 320 321 320 321 321 322 323 320 322 321 315 313 313 314 315 313 315 315 311 309 308 309 312 311 312 312 312 314 313 316 320 318 317 316 313 312 310 309 307 306 311 312 309 307 306 309 314 313 312 316 316 316 318 317 316 318 314 311 311 311 316 317 315 317 316 314 313 311 315 315 311 313 312 307 308 311
317 317 316 316 316 316 316 316 317 319 319 319 319 319 320 322 323 322 323 323 322 318 313 313 313 314 314 315 320 316 311 312 310 308 311 310 311 315 317 316 312 313 317 317 317 319 320 316 309 308 309 308 311 312 312 313 311 309 312 313 314 315 316 317 319 318 317 319 313 308 311 314 316 319 318 316 314 313 310 308 310 310 309 312 310 307 309 310
316 315 315 315 315 316 315 315 317 318 319 320 319 318 320 322 322 322 324 324 323 320 316 315 315 316 314 317 322 319 315 317 313 309 312 312 313 317 320 316 310 311 313 313 316 318 319 320 316 314 313 310 309 310 315 318 312 308 312 315 315 317 320 320 321 320 319 321 315 308 313 318 319 322 320 314 311 310 309 309 309 309 310 311 308 307 309 309
315 314 314 315 315 315 315 315 316 317 319 319 318 320 321 321 321 322 323 324 324 322 319 318 318 320 320 320 320 317 316 320 317 314 315 317 320 323 324 321 313 312 314 315 318 318 316 322 321 312 309 309 310 310 314 319 314 310 313 314 313 316 319 318 319 321 320 320 316 312 316 318 316 317 316 310 309 308 308 308 308 308 309 308 307 307 307 306
313 313 313 313 313 314 315 315 316 317 318 319 318 320 320 319 320 323 321 320 321 321 321 321 320 321 323 323 322 316 313 317 319 317 317 317 320 323 324 323 316 312 315 318 320 319 317 322 319 309 307 308 308 308 310 313 315 312 311 313 313 314 317 316 317 320 319 318 318 317 318 316 315 317 315 313 314 314 312 309 304 305 306 306 305 304 303 303
309 309 309 309 310 311 313 314 315 317 318 318 318 319 319 318 319 321 320 317 317 318 320 321 321 322 323 323 323 318 313 317 317 316 318 317 316 318 319 319 314 310 315 318 320 321 320 321 318 314 314 309 304 306 307 307 310 314 314 314 312 313 315 315 317 320 319 318 320 320 319 318 320 319 315 316 319 317 316 313 305 303 304 303 301 300 299 300
307 306 306 307 307 307 309 312 314 316 318 318 317 317 318 317 315 317 318 315 315 317 319 320 320 321 324 322 322 320 315 317 317 316 320 320 317 318 318 318 313 309 310 312 316 320 318 318 318 315 315 312 304 307 310 307 306 312 314 313 313 314 315 316 316 318 318 319 320 321 320 319 320 319 317 319 318 313 313 312 306 303 302 300 298 298 297 298
306 306 306 307 307 306 307 310 314 316 317 318 317 317 318 317 315 315 316 315 316 317 319 320 319 319 322 321 320 321 319 318 318 317 319 319 318 317 316 317 314 308 306 308 313 317 315 317 319 315 313 314 311 311 316 314 308 307 308 310 312 313 314 315 315 315 318 319 320 321 321 320 321 319 317 316 314 311 310 309 303 300 299 297 296 296 295 295
305 307 308 309 311 309 307 310 314 316 317 318 318 317 317 317 315 315 316 315 316 317 318 320 320 319 319 319 318 319 320 319 318 318 319 320 320 318 316 316 315 312 308 308 310 313 315 317 317 315 314 315 315 315 316 318 314 310 311 313 313 313 314 316 315 315 317 318 319 320 320 321 320 317 316 313 310 308 307 304 299 297 296 295 294 294 294 294
305 307 308 310 312 311 309 313 315 315 317 318 317 316 316 315 315 315 316 316 315 316 316 318 319 318 317 318 318 318 319 321 320 318 318 320 320 319 316 314 314 315 313 313 313 313 315 317 316 316 316 315 317 317 316 317 317 316 316 317 318 316 316 318 318 316 315 316 318 319 319 320 321 319 314 310 304 301 301 299 297 296 295 294 294 293 294 294
306 308 308 310 312 311 311 314 315 315 316 317 316 315 315 315 315 315 314 315 315 315 315 316 317 317 316 317 317 317 318 320 320 319 318 319 319 317 314 311 311 314 316 318 318 313 312 315 316 316 317 316 317 316 314 314 314 315 315 316 317 316 316 318 320 317 315 315 316 317 317 319 322 319 310 302 298 296 296 295 295 294 293 293 293 293 294 294
305 307 308 309 311 312 313 315 315 315 315 315 315 315 314 314 315 315 313 314 314 314 315 316 315 315 316 316 316 317 317 317 317 318 318 319 317 312 309 309 311 312 314 317 317 311 309 313 316 315 316 317 317 314 311 311 313 313 314 314 314 315 315 316 316 315 316 316 316 317 317 318 321 316 302 297 296 295 294 294 293 293 293 293 293 293 294 294
302 304 306 309 312 312 313 314 315 315 315 314 314 314 314 314 313 314 313 314 315 314 314 315 314 313 314 314 314 315 316 316 315 315 316 317 315 308 305 307 308 308 308 310 311 310 310 313 315 315 316 317 316 314 312 312 314 314 315 315 313 314 315 314 313 313 314 315 316 317 317 317 320 314 302 297 296 294 293 293 292 293 293 293 294 293 293 294
300 301 302 306 311 311 310 311 312 313 314 313 314 313 313 313 313 313 313 313 313 313 313 314 312 312 312 312 313 313 313 313 313 313 314 314 313 307 304 305 306 305 305 304 305 308 310 312 314 315 316 315 314 314 312 311 312 313 314 314 312 313 314 313 313 314 314 315 316 315 315 315 317 314 306 301 298 294 293 292 292 292 292 292 293 293 293 293
299 303 302 302 305 307 306 307 308 310 312 312 313 312 312 312 313 312 313 313 312 312 313 313 311 310 311 311 312 312 311 311 311 312 313 315 314 308 303 304 304 303 304 304 304 308 310 311 313 313 313 314 313 313 311 308 309 311 312 312 311 310 311 311 312 314 314 314 314 314 314 313 313 313 308 303 300 296 293 292 292 292 292 292 292 291 291 291
298 304 303 301 303 304 305 306 306 307 309 309 310 312 311 311 311 311 312 312 311 311 312 311 310 311 312 311 312 312 312 311 311 311 312 312 311 307 303 303 302 301 303 302 303 307 310 309 311 312 311 311 310 308 307 306 307 308 309 309 308 308 309 310 310 311 311 312 312 313 313 310 311 311 307 301 298 295 294 293 292 292 292 292 291 291 291 291
298 300 299 300 303 303 304 304 302 303 305 305 307 309 310 310 310 310 311 309 308 310 311 310 310 310 311 310 310 311 311 310 309 310 310 309 308 308 307 303 300 299 300 300 301 306 309 308 308 309 308 307 305 304 304 305 305 305 306 306 306 306 307 307 306 307 308 308 309 310 309 308 309 307 301 296 295 294 294 293 293 292 292 292 291 291 291 291
296 297 296 298 299 299 300 301 299 300 303 304 305 307 308 308 308 308 308 307 306 307 309 309 308 306 307 307 309 309 309 308 308 309 309 308 307 308 308 306 302 298 298 300 301 303 306 306 306 305 304 303 303 303 303 303 302 302 302 302 303 303 303 304 303 304 305 305 306 306 306 307 306 301 296 294 294 293 293 293 293 292 292 292 291 291 290 290
294 296 296 296 297 296 297 298 298 299 301 302 304 305 305 306 306 305 306 306 306 306 307 307 304 301 302 304 305 306 305 304 305 305 303 304 305 304 303 304 303 299 298 301 302 302 304 305 304 303 302 302 302 302 302 301 301 300 300 301 301 301 301 301 301 302 303 303 304 304 305 306 300 294 293 294 293 292 292 292 292 292 293 293 292 291 290 290
293 295 295 295 296 296 296 295 296 298 300 301 302 303 303 304 303 302 303 303 303 304 303 301 299 298 299 301 301 302 300 299 300 300 298 299 301 300 299 300 300 299 299 301 302 302 302 303 302 301 300 300 301 301 300 299 299 299 299 299 299 299 299 299 300 301 301 302 302 303 304 303 297 292 293 293 292 292 292 291 291 292 292 293 293 292 290 289
293 294 294 294 295 295 295 294 295 297 298 298 299 300 300 299 297 298 302 301 297 297 297 295 296 297 298 299 300 299 297 296 296 296 295 296 296 296 296 297 297 297 299 300 300 300 301 301 300 300 299 299 299 299 298 298 297 297 297 298 298 297 298 298 298 301 302 302 303 303 301 297 294 293 294 294 293 292 291 291 291 291 291 292 293 292 290 289
Wind_Speed
8 8 8 7 7 7 6 6 6 6 5 5 5 5 5 5 5 5 5 6 6 7 8 8 9 10 10 11 12 12 13 14 15 15 10 5 3 4 5 5 8 8 8 8 8 6 6 5 7 6 6 6 3 4 5 5 7 5 3 2 2 2 4 5 8 8 4 3 5 5 4 2 6 9 7 6 9 14 17 23 24 21 25 27 27 27 26 27
8 8 8 8 7 7 7 7 7 6 6 6 6 6 6 6 6 6 7 7 8 8 9 10 10 11 12 13 13 14 15 15 17 11 3 5 6 6 6 3 6 9 9 9 8 7 7 6 7 8 8 7 4 4 5 6 7 5 2 2 4 5 6 7 10 9 6 6 7 10 10 6 9 10 6 5 8 10 13 22 24 23 28 27 25 25 25 25
8 9 9 8 8 8 7 7 7 7 8 8 8 8 7 7 8 8 8 9 9 10 10 11 12 12 13 14 14 15 16 17 19 6 4 9 8 6 6 3 4 9 11 11 10 9 9 8 8 9 10 8 5 5 5 6 7 5 3 2 6 7 6 9 13 13 13 12 8 12 13 11 15 12 6 5 7 8 11 20 21 21 27 25 21 19 20 23
9 9 9 9 9 9 9 8 9 9 9 9 9 9 10 10 10 10 10 10 11 11 11 12 13 13 14 15 15 16 17 18 12 7 3 11 11 7 6 4 3 6 10 12 12 12 10 9 9 9 9 7 5 5 5 7 7 5 6 5 6 5 3 10 16 17 17 15 11 12 12 12 17 12 8 6 4 7 16 26 25 25 29 27 24 21 21 24
10 10 10 10 10 10 10 10 10 10 10 10 10 11 11 11 11 12 12 12 13 13 13 13 14 15 15 16 15 16 15 10 2 8 4 13 12 9 5 3 3 2 7 11 13 13 11 10 9 9 8 4 4 3 4 10 9 4 8 11 9 5 3 10 14 14 14 13 12 10 9 13 14 11 13 10 5 11 23 32 32 34 34 31 30 27 27 28
11 11 11 12 12 12 12 11 11 11 12 12 12 12 12 12 13 13 13 14 14 15 15 15 15 15 16 16 16 16 10 4 5 7 11 16 13 10 6 5 4 4 4 8 12 12 11 10 10 9 6 2 5 6 4 10 11 4 7 11 15 13 10 12 12 12 12 11 10 9 12 18 12 12 17 15 17 26 35 38 38 39 38 35 34 32 32 31
12 12 12 12 12 13 13 13 13 13 13 13 13 14 14 14 14 14 14 14 15 16 16 16 17 17 18 18 18 16 8 10 14 15 15 14 11 8 7 8 7 6 5 7 10 12 12 12 13 10 5 1 5 8 6 9 11 6 4 7 14 17 18 21 18 15 16 15 17 16 17 22 16 10 14 16 23 34 40 38 38 37 36 35 34 32 32 30
12 12 13 13 13 14 14 14 14 14 15 15 15 15 16 16 16 16 16 16 16 16 17 17 17 18 18 18 19 13 12 17 18 14 11 7 7 7 9 11 10 9 7 8 9 11 13 14 16 11 5 4 6 6 6 6 7 7 8 8 9 13 18 22 20 18 19 21 23 17 17 29 28 15 16 24 31 36 33 30 31 30 30 31 30 29 28 27
14 14 14 14 15 15 15 15 16 16 16 16 17 17 18 18 18 18 18 18 18 18 19 18 19 20 18 20 19 13 16 19 14 11 9 7 9 12 14 14 12 11 9 9 9 11 13 14 17 14 8 7 7 6 7 6 5 10 13 11 9 12 18 19 19 20 19 22 20 10 15 31 31 14 17 31 30 24 20 22 26 25 27 29 29 28 27 27
15 15 15 16 16 16 17 17 17 17 18 18 19 19 20 20 20 20 20 19 19 19 20 19 20 20 19 21 15 10 17 18 12 13 12 13 15 16 18 16 15 15 12 11 12 13 13 12 13 13 11 6 7 7 8 7 5 7 9 11 14 17 21 18 17 21 18 20 19 11 13 28 25 6 11 27 19 13 17 24 27 26 31 32 31 30 28 28
16 16 17 17 17 18 18 18 19 19 19 20 20 21 22 22 22 22 22 21 21 21 21 20 20 20 20 22 17 15 22 20 17 19 17 18 20 20 20 19 19 17 14 13 12 12 12 12 10 9 8 5 5 6 8 10 8 5 4 9 14 14 20 17 15 21 15 13 17 15 12 21 17 2 17 35 25 18 23 28 31 30 33 33 31 30 28 28
17 17 17 18 18 18 19 19 20 20 21 21 22 23 23 24 24 24 23 22 22 21 21 20 19 20 19 22 26 26 27 24 22 21 19 21 22 23 22 20 19 16 14 13 11 11 11 14 13 10 6 4 3 2 6 10 7 5 3 6 10 8 14 14 13 17 12 6 8 10 5 11 8 11 31 40 26 20 23 26 32 32 32 30 28 28 27 27
17 17 17 18 18 18 19 19 20 20 21 21 22 22 23 24 24 24 23 22 22 21 21 20 19 20 17 21 30 29 25 23 21 19 20 21 22 24 23 21 19 16 14 13 11 12 12 14 15 14 9 5 3 2 4 3 2 5 1 0 6 6 9 8 6 6 6 6 9 11 3 8 8 20 37 33 19 18 20 25 31 31 30 28 27 28 30 32
16 16 16 16 16 16 17 17 17 17 18 18 19 19 20 21 21 22 21 21 20 20 20 19 18 17 15 21 28 28 25 23 22 21 21 22 23 25 24 21 18 16 14 13 13 13 12 12 13 13 11 9 6 6 5 3 0 3 1 0 2 3 6 5 1 5 2 5 14 12 4 9 9 22 35 28 17 15 18 25 28 29 30 30 30 32 35 39
12 12 12 12 12 13 13 13 13 14 15 16 16 17 18 18 19 19 19 19 18 18 18 17 18 15 13 20 26 24 23 22 19 19 18 19 21 23 23 19 16 15 13 13 13 13 11 11 12 10 7 9 8 4 3 4 2 2 2 4 1 3 6 9 5 8 8 5 13 10 4 8 10 20 30 24 15 12 16 24 28 31 34 35 37 38 41 45
8 8 8 8 9 9 10 10 11 12 13 14 15 16 17 17 18 18 18 17 16 16 16 14 15 12 8 15 20 20 22 21 18 17 17 18 19 21 21 17 13 12 12 12 12 11 10 10 10 8 4 5 4 2 3 3 4 2 2 5 5 5 3 6 9 8 10 4 7 9 5 6 7 15 24 21 19 18 18 25 32 36 38 40 42 42 44 45
5 5 5 6 6 7 8 9 10 11 11 13 14 15 16 17 16 16 16 15 14 13 12 11 9 8 9 14 18 21 21 18 16 15 14 15 17 18 18 15 12 11 11 12 12 10 10 10 7 5 3 1 3 4 2 2 4 3 2 4 5 6 3 3 8 8 3 6 6 7 8 10 10 14 23 28 31 27 24 30 34 37 41 42 42 41 42 42
3 4 5 5 6 7 8 9 10 10 11 13 14 15 14 13 13 14 14 12 9 7 7 7 5 2 8 14 16 17 16 13 13 13 13 14 14 14 14 13 12 11 10 9 10 11 10 7 4 1 1 1 2 4 2 6 8 6 5 5 3 4 4 5 6 5 4 4 6 4 9 14 14 15 23 33 34 28 30 34 33 36 41 42 42 42 42 42
3 4 5 5 6 7 8 9 10 11 12 12 13 15 12 10 11 10 8 6 5 3 4 6 7 4 7 12 15 15 15 16 15 16 16 14 12 11 11 10 11 13 11 6 6 11 11 4 4 2 3 6 7 8 11 14 10 7 5 5 5 5 5 6 8 7 4 8 8 8 15 16 13 14 18 29 30 26 32 36 35 38 37 37 40 42 44 44
3 4 5 5 5 7 7 9 11 12 14 13 15 14 10 10 9 4 7 11 12 11 13 15 16 18 20 23 24 21 20 20 20 18 15 12 10 10 11 11 11 11 8 5 5 8 9 4 3 6 9 12 13 12 13 11 4 2 2 4 6 6 8 8 9 8 1 4 9 10 18 17 13 12 13 26 28 21 26 31 35 38 34 35 39 43 46 44
3 4 5 6 6 7 7 9 10 12 14 14 16 13 9 10 5 4 12 18 18 18 21 24 25 27 29 30 29 26 22 19 20 19 15 12 9 9 11 12 9 5 4 5 5 3 6 6 7 12 13 10 8 7 7 6 5 5 5 6 6 5 10 10 8 9 1 2 6 6 16 19 14 12 13 22 22 18 24 25 30 36 34 37 41 45 45 39
5 6 6 7 7 7 8 9 9 12 13 13 14 12 10 11 9 10 12 13 21 24 22 24 28 32 33 32 33 32 23 16 18 18 14 13 13 10 10 10 5 3 3 4 4 1 3 5 10 16 9 2 2 3 3 5 6 7 5 5 6 3 8 9 5 7 1 2 6 6 14 17 14 14 16 21 20 22 26 24 31 38 34 39 44 42 37 34
8 8 8 9 8 9 9 9 10 11 11 11 12 12 12 14 13 16 12 8 16 21 22 25 27 31 31 31 33 31 23 17 16 17 16 15 15 12 10 9 4 2 4 5 6 5 4 6 13 17 8 3 3 4 6 1 4 5 5 4 6 3 4 7 3 5 3 3 6 9 14 15 12 14 15 19 20 21 27 30 35 39 37 42 44 37 33 33
10 10 10 10 10 10 10 10 11 10 10 11 11 11 12 15 15 18 14 7 8 12 19 24 19 19 22 22 23 22 19 17 12 10 14 17 15 9 7 8 5 3 5 9 10 9 7 4 6 8 6 8 7 1 4 3 5 6 6 5 8 8 8 9 5 6 5 4 4 6 12 10 5 6 7 8 9 13 23 26 29 37 41 40 38 34 29 25
13 12 12 11 12 13 12 12 11 9 9 11 10 10 12 14 16 18 13 5 4 6 10 11 7 6 9 10 11 11 10 12 12 10 10 16 17 7 4 7 6 4 8 9 8 9 8 5 2 4 5 7 7 4 5 7 7 6 5 10 13 13 11 11 8 7 5 4 3 5 7 7 1 1 4 4 3 7 11 12 21 36 35 28 29 28 19 17
15 14 13 13 13 15 14 11 9 8 8 8 7 8 11 12 14 16 10 2 3 4 2 2 2 2 1 2 2 4 3 4 9 12 11 14 18 9 3 4 4 3 6 6 3 4 4 6 4 5 5 6 6 5 7 9 6 6 5 10 13 11 9 10 7 4 1 4 3 4 2 8 3 2 5 5 4 9 8 9 20 25 19 18 23 20 17 16
16 15 14 15 14 14 11 8 8 7 7 6 6 7 8 9 11 12 7 3 3 2 3 1 1 2 2 1 5 6 2 4 1 7 12 13 14 9 4 3 2 2 4 4 2 3 3 3 1 5 5 6 5 5 7 9 5 5 5 6 7 7 8 6 3 3 4 3 4 0 3 7 8 3 4 2 3 9 12 13 12 10 15 21 22 17 14 11
16 14 14 15 14 13 11 10 11 8 6 6 6 6 6 8 9 8 4 2 3 2 3 1 3 4 3 5 8 4 2 3 3 1 8 11 11 6 3 5 5 4 4 5 4 3 3 3 4 6 5 4 6 5 7 12 6 6 3 5 5 5 5 4 4 4 2 3 4 2 4 3 9 5 1 2 3 8 12 12 7 8 14 20 18 13 10 14
15 14 14 14 14 14 12 13 13 9 7 7 7 7 7 7 6 5 3 2 2 3 1 0 2 3 3 6 5 1 4 4 2 2 4 6 10 4 2 4 6 4 4 4 6 4 1 2 6 8 5 5 7 4 8 12 6 4 5 5 4 3 3 3 3 3 1 3 4 4 5 3 9 5 3 3 3 6 8 7 5 7 13 13 11 6 12 18
17 16 16 15 15 15 14 14 14 11 9 8 8 8 7 5 3 3 3 3 2 1 0 1 0 2 2 4 1 3 1 2 3 5 3 3 8 5 1 2 2 3 2 3 5 5 1 2 2 5 6 6 6 2 3 7 5 4 6 4 5 4 4 3 1 3 1 5 5 9 10 5 6 5 3 3 4 5 4 4 4 6 9 8 4 8 16 21
20 20 19 18 17 16 16 16 14 11 9 8 8 8 6 3 3 3 6 2 2 2 1 2 1 2 3 3 2 2 0 1 2 5 2 2 3 2 1 0 1 2 3 4 5 4 0 2 1 5 6 5 7 4 3 2 3 4 3 3 3 4 4 4 4 3 1 6 4 8 10 8 7 5 2 4 5 5 4 2 4 5 9 11 5 13 19 21
21 21 21 20 19 17 17 16 15 13 11 9 8 6 3 1 1 5 4 4 3 2 2 1 2 1 3 2 1 2 0 1 2 4 2 2 1 2 2 3 2 2 4 3 3 4 2 4 4 2 4 6 5 3 3 3 4 4 3 2 2 4 3 3 2 1 3 6 4 3 4 5 8 5 3 8 9 8 8 7 8 8 13 19 12 12 17 18
21 20 19 19 19 18 17 16 16 14 12 10 6 1 3 2 4 3 1 2 2 1 2 1 1 1 2 1 2 2 0 1 3 3 3 3 2 3 5 4 4 1 4 2 2 4 3 4 1 1 3 7 8 4 2 1 3 5 4 4 3 1 2 4 3 2 4 5 4 1 2 4 5 3 7 13 13 8 5 9 13 13 15 21 16 13 17 18
20 20 20 19 19 18 16 15 15 13 11 8 3 3 1 6 4 3 2 5 3 3 1 2 1 2 1 2 3 3 2 3 3 4 2 3 2 2 4 4 5 3 2 1 2 1 3 6 3 4 2 7 10 7 4 4 5 6 5 5 4 4 4 4 3 4 6 4 3 1 3 3 2 3 7 10 8 8 6 9 12 11 13 13 11 18 21 20
21 21 21 21 20 18 16 15 14 12 11 6 4 2 6 7 2 1 4 5 2 3 4 1 1 3 2 3 3 3 4 4 2 4 2 3 3 4 3 4 6 5 2 1 1 1 2 7 5 2 0 8 7 4 4 6 1 3 3 3 3 4 5 4 4 4 2 2 3 2 4 4 4 6 9 5 4 8 11 13 12 11 8 10 20 25 24 22
23 23 22 23 21 17 15 15 13 13 12 7 3 5 8 5 3 3 3 2 3 2 2 4 2 2 4 2 2 2 1 2 1 1 2 2 3 5 5 4 6 9 7 4 2 2 2 6 3 2 1 5 4 2 3 3 2 1 3 3 3 3 5 3 5 1 2 4 5 3 5 6 4 7 6 1 3 5 8 10 9 8 14 23 27 26 25 25
25 24 24 27 25 19 17 16 13 15 14 8 4 7 4 3 6 6 3 3 2 3 2 3 3 3 3 3 2 1 1 1 1 1 2 2 3 4 4 4 5 11 12 7 3 4 4 6 5 4 4 7 4 2 1 1 4 5 3 4 1 1 3 2 2 1 0 7 5 3 9 10 6 5 3 5 7 7 8 8 11 17 22 24 24 26 26 26
21 19 21 26 25 21 20 18 15 17 15 8 9 11 4 4 7 6 5 4 1 2 3 4 4 2 3 4 3 2 3 2 1 2 2 3 4 5 5 4 5 9 10 7 2 3 4 6 6 4 5 3 1 2 1 1 3 5 3 1 2 2 2 1 2 2 4 6 3 4 9 8 5 6 5 5 3 5 8 9 11 15 19 20 21 24 25 27
13 11 12 14 16 18 21 19 18 21 14 5 10 11 5 5 8 9 9 5 1 2 3 5 4 2 3 4 3 2 3 3 2 2 3 3 5 5 5 3 4 4 5 7 4 2 3 4 6 1 3 0 2 2 3 3 2 1 1 1 1 2 2 1 2 1 2 5 4 4 5 5 6 4 1 1 2 5 6 9 10 12 16 19 21 22 24 27
7 4 5 6 8 12 17 19 21 20 10 4 8 7 2 3 6 9 12 8 3 2 3 4 4 4 5 4 4 4 2 3 4 4 3 3 4 4 3 3 4 3 1 4 4 2 2 4 6 2 1 0 0 3 6 6 3 3 2 2 1 1 0 1 2 1 2 4 4 4 5 6 5 1 6 5 8 9 7 9 10 12 18 21 23 24 25 27
7 2 3 7 6 10 20 20 15 11 5 6 8 6 4 4 3 4 8 9 8 6 5 3 4 5 5 5 5 3 2 3 4 5 4 4 5 5 2 1 4 4 2 1 3 2 1 3 4 4 3 3 5 5 6 6 4 3 4 4 4 4 3 4 5 3 3 4 4 5 7 6 5 3 3 8 10 9 10 11 10 12 18 21 24 26 26 28
10 3 3 9 8 14 23 15 7 6 4 5 6 4 4 5 5 5 6 7 7 6 5 3 3 5 4 5 6 4 3 4 4 5 5 5 7 5 5 7 2 5 3 1 3 2 3 1 1 4 6 7 8 3 2 2 1 1 3 4 5 6 5 7 8 3 3 4 4 6 7 5 5 5 6 10 9 10 15 15 11 14 19 20 23 25 26 28
11 6 6 10 13 21 20 8 4 5 4 5 5 5 6 5 3 3 3 4 5 3 3 2 3 5 5 5 6 5 5 5 6 8 6 4 5 2 10 11 5 1 1 2 3 1 3 2 1 4 4 6 8 2 5 3 2 1 4 4 5 5 5 7 5 2 3 4 5 7 6 2 2 2 9 12 11 14 18 18 16 16 20 22 23 25 26 26
9 9 8 11 17 22 15 5 5 6 5 6 6 8 10 9 7 7 4 3 5 2 1 2 4 5 3 2 2 3 4 3 5 7 5 3 3 4 13 14 7 3 3 2 3 3 1 1 1 1 3 4 6 3 3 4 2 1 3 3 2 3 5 5 2 2 4 6 7 9 5 2 2 2 9 10 11 12 12 15 17 16 18 20 21 23 25 26
3 5 7 11 18 17 7 1 2 4 6 8 8 9 11 9 11 14 11 7 9 7 3 3 4 4 2 1 1 2 3 4 3 3 1 1 3 3 10 13 10 4 3 5 6 4 2 2 1 2 6 6 7 6 1 1 1 2 2 4 4 3 6 7 4 4 5 6 8 9 7 5 5 2 7 6 7 9 7 9 13 13 14 16 18 21 23 24
3 1 2 6 13 14 8 3 1 2 4 5 6 7 10 8 7 10 10 8 10 10 7 5 2 2 1 2 3 5 5 6 5 4 3 3 2 2 4 8 9 5 2 5 7 3 0 2 2 4 7 7 7 5 1 2 1 3 3 5 6 5 5 5 4 5 5 5 7 9 9 10 9 6 7 7 4 5 5 5 7 9 10 12 15 17 19 21
2 1 1 1 5 8 8 6 4 2 2 1 1 2 5 6 2 2 4 3 2 2 4 5 2 2 4 4 3 5 6 5 6 6 5 4 2 2 1 3 6 6 2 2 6 2 1 2 4 7 8 5 4 4 3 2 2 2 4 6 7 8 7 7 9 8 7 8 7 5 7 11 11 8 4 4 5 4 4 3 4 5 6 8 11 13 15 16
2 1 3 3 1 2 4 4 3 3 4 2 1 3 4 4 2 1 1 1 3 3 0 2 1 2 4 3 1 2 3 4 3 2 2 2 2 2 3 1 3 8 6 3 5 3 2 3 4 5 6 4 5 7 6 5 4 4 5 7 9 11 12 12 13 12 9 9 9 9 13 17 14 7 1 1 2 3 3 4 3 2 3 5 7 10 12 14
2 1 1 1 1 1 0 1 3 3 3 2 1 4 5 5 6 5 1 3 4 1 1 4 2 3 4 3 0 3 4 5 6 3 0 1 2 1 2 2 0 8 9 4 3 1 2 2 1 1 3 5 7 9 8 7 8 9 9 9 11 14 16 16 16 15 15 17 16 16 20 19 9 1 3 1 2 4 6 7 6 6 6 6 7 9 12 13
1 1 0 1 1 1 1 1 1 2 2 2 3 5 5 6 7 5 1 3 5 3 2 4 3 4 2 2 1 3 4 2 4 4 0 1 0 0 1 2 1 5 7 2 2 3 2 2 3 3 4 7 9 10 11 10 9 10 11 11 14 17 18 17 16 16 16 17 16 16 18 12 1 3 1 2 2 4 6 7 8 9 9 8 9 11 13 13
3 2 1 1 1 1 2 1 0 0 2 3 3 3 3 5 4 1 1 1 1 0 2 2 2 3 1 1 2 1 1 3 1 2 1 2 3 2 2 1 1 4 4 1 1 3 2 2 4 5 5 7 9 12 12 9 9 10 12 16 19 19 16 15 14 12 11 11 11 11 11 5 2 2 2 3 3 4 5 8 9 10 10 10 11 13 16 16
4 3 2 1 0 1 2 1 1 2 2 2 2 1 1 0 3 2 1 2 7 8 7 5 2 3 1 3 3 3 4 2 2 6 7 8 10 10 10 11 9 5 2 0 1 2 2 2 3 4 6 9 10 9 5 5 8 11 10 13 16 16 13 12 10 8 7 5 6 7 4 1 2 3 2 2 3 3 6 10 12 14 15 14 13 14 18 19
Wind_Direction
327 329 331 332 333 332 332 333 333 335 338 338 342 346 347 350 350 350 349 350 349 348 347 346 345 344 345 345 345 343 339 336 332 332 336 1 15 336 320 278 255 241 226 212 211 215 218 225 224 218 212 205 206 192 174 176 166 156 109 111 217 203 200 189 188 200 183 251 268 255 260 242 285 299 295 282 258 262 273 272 268 262 265 268 273 279 281 283
316 318 319 321 322 322 322 321 320 321 320 321 323 323 325 328 327 329 329 331 331 332 334 333 335 335 336 337 338 336 334 331 326 326 35 45 11 354 353 313 258 239 226 218 221 224 221 225 224 220 212 206 210 197 186 186 174 160 112 144 225 207 203 198 199 203 200 246 266 274 286 280 277 288 290 273 256 266 275 274 272 266 270 273 273 278 282 282
308 308 309 310 310 311 311 310 311 309 310 311 310 312 313 313 314 316 316 317 320 321 323 324 325 326 328 330 331 332 333 329 319 291 111 24 359 342 345 333 265 239 230 224 222 224 221 218 218 218 212 209 205 193 188 185 185 188 150 185 240 219 218 227 228 231 237 256 273 283 288 280 278 282 264 245 270 277 261 268 271 264 275 286 285 282 281 280
301 300 300 300 300 301 301 301 302 301 302 301 301 303 303 306 307 308 309 310 311 312 314 316 317 319 321 323 325 328 332 328 309 203 163 356 352 333 334 341 306 246 235 230 225 226 224 219 216 214 211 211 201 198 201 193 192 184 168 204 232 195 221 241 244 253 255 260 263 274 288 286 285 280 243 231 287 276 258 269 274 273 282 293 295 289 282 279
296 297 296 296 296 295 296 295 295 295 295 294 295 295 296 298 298 300 302 303 305 305 307 308 310 313 312 315 317 321 335 338 269 180 258 326 331 316 307 324 344 288 244 232 229 229 227 222 214 208 207 208 179 183 227 205 190 181 208 232 236 195 227 254 255 264 262 258 258 265 278 282 286 277 248 221 216 258 271 282 285 285 288 291 292 289 283 279
293 294 294 294 295 295 294 293 292 292 291 292 292 291 292 291 291 293 293 296 298 298 301 302 304 305 306 309 308 312 324 312 261 254 289 307 310 300 279 291 329 331 274 238 233 230 228 219 209 203 195 201 187 192 228 203 192 223 242 239 246 238 241 262 261 264 267 258 253 256 275 282 282 281 266 225 225 265 281 288 288 288 288 287 287 284 282 281
289 290 290 292 292 293 293 292 292 291 291 291 291 291 290 290 290 290 290 292 292 294 296 297 299 299 301 302 301 304 284 271 290 291 294 298 293 285 272 286 302 308 290 253 242 231 228 216 208 202 176 200 210 208 226 204 197 226 267 241 249 248 248 262 263 262 266 263 264 269 281 282 269 275 279 239 243 274 288 290 287 287 287 283 282 281 281 282
287 288 288 290 290 291 292 292 292 292 292 291 290 290 289 289 288 288 289 289 289 291 291 292 294 294 297 297 297 295 269 283 300 296 295 291 273 277 280 286 287 293 287 264 251 236 232 218 213 205 188 219 210 201 204 209 206 212 243 250 249 253 257 267 269 267 267 268 273 273 272 273 270 271 274 263 263 275 286 290 286 284 284 280 279 280 280 280
287 288 288 289 289 289 290 290 291 291 291 290 290 289 288 288 286 287 287 286 288 287 287 288 288 289 290 289 291 283 274 290 299 287 293 287 279 282 282 283 280 286 281 259 246 234 230 223 221 218 221 223 208 208 187 197 231 211 227 249 259 265 270 274 273 270 270 271 268 259 261 269 275 282 271 268 268 273 280 285 285 282 282 281 281 283 283 281
286 286 286 287 287 288 289 289 289 290 290 290 290 289 288 288 287 287 286 286 287 285 286 285 285 286 285 285 282 269 281 292 290 285 290 286 283 281 279 280 280 281 273 259 244 237 237 238 236 226 234 232 207 210 184 189 232 224 235 263 268 272 279 276 271 271 269 269 254 223 251 266 275 299 266 268 262 261 273 278 283 281 282 285 285 287 286 283
284 284 285 285 286 287 287 288 289 289 289 289 289 289 289 289 289 288 288 288 287 286 286 285 286 284 283 283 267 258 282 289 286 287 286 284 283 278 277 276 276 276 267 261 250 247 248 243 235 214 223 223 202 203 207 221 240 264 292 286 280 288 290 274 262 268 258 264 251 219 244 272 279 247 252 266 264 261 270 277 282 280 281 286 287 288 287 285
282 283 283 285 286 287 288 288 289 289 289 289 289 289 289 289 289 289 289 288 286 285 284 284 284 282 284 279 265 267 283 284 281 283 279 279 277 274 274 271 270 269 264 262 254 250 243 236 227 211 211 193 176 184 228 231 237 283 330 296 295 327 304 270 251 260 233 239 242 192 240 282 261 232 258 270 273 270 271 276 282 281 282 284 287 288 285 285
284 284 285 286 287 287 288 288 289 290 289 289 289 289 289 289 289 289 288 286 284 282 281 280 278 279 278 273 273 278 284 281 277 275 272 272 272 271 270 267 264 260 257 252 245 240 230 232 227 222 228 204 190 236 251 239 223 281 330 259 307 339 310 267 233 237 199 214 189 155 231 272 242 249 264 275 279 279 274 273 279 281 283 284 285 284 281 283
284 285 286 286 287 288 289 291 293 294 294 294 294 293 292 292 292 291 290 288 285 280 277 274 272 271 264 267 280 284 281 280 278 273 271 270 269 269 267 265 262 258 255 247 241 234 224 225 222 225 235 232 241 258 284 343 11 282 301 171 325 298 284 289 161 147 189 225 176 161 252 255 256 264 269 279 282 279 271 272 279 281 283 284 282 280 279 281
285 288 290 290 291 293 295 299 301 303 305 304 303 303 301 300 298 296 295 291 287 281 275 269 266 263 260 272 280 282 281 279 278 277 273 268 264 266 266 265 261 255 248 239 235 229 219 208 205 213 229 236 241 257 313 350 9 18 287 281 271 211 268 304 295 188 222 235 171 172 253 251 258 267 273 284 290 283 269 273 280 281 283 283 281 280 279 282
290 294 295 298 301 304 308 310 312 315 318 316 314 313 310 308 305 302 300 295 289 281 274 269 266 255 256 279 278 276 278 278 279 279 273 270 263 260 261 260 255 245 233 227 224 216 203 186 192 203 212 229 203 144 20 356 327 338 222 252 247 237 271 316 302 242 217 201 179 204 236 254 258 266 276 287 292 292 280 277 281 282 283 282 281 281 280 283
303 308 310 317 321 326 327 326 328 329 332 330 324 322 319 314 310 306 302 299 293 283 272 264 260 254 253 265 271 274 277 278 279 276 274 272 263 257 254 249 240 228 216 210 207 196 185 177 180 203 214 203 115 109 23 310 272 278 224 240 240 247 260 288 301 297 217 173 205 236 238 249 259 273 282 284 287 291 284 278 280 282 283 282 282 282 281 281
333 338 340 342 348 352 348 346 345 342 347 345 335 332 327 319 317 312 308 308 302 292 277 246 210 235 259 253 260 274 282 282 278 277 277 270 260 254 246 238 229 209 190 187 192 180 176 177 160 143 307 229 130 129 187 236 234 236 232 251 273 257 251 246 262 305 327 234 221 252 254 252 261 274 280 280 284 286 282 281 281 281 281 283 284 283 283 281
356 358 354 352 357 358 356 354 352 349 349 350 346 342 334 329 328 318 321 333 312 294 282 237 207 222 269 268 272 279 285 282 281 280 275 267 257 244 226 220 207 182 165 160 187 179 169 142 107 143 222 216 208 182 205 229 232 231 224 241 276 273 248 233 244 263 302 285 267 266 266 262 264 267 273 278 280 279 279 283 283 280 279 282 284 283 284 282
341 343 337 337 344 349 351 351 351 349 346 347 350 351 349 350 347 325 322 316 296 281 274 264 254 254 263 273 276 277 278 277 278 277 272 265 249 222 196 181 173 171 168 157 182 183 170 161 163 201 216 215 218 209 217 242 278 280 235 252 261 267 267 251 260 266 186 280 269 255 271 275 270 267 269 276 278 274 273 276 276 277 279 281 282 282 282 283
288 302 308 310 318 331 338 343 347 348 348 348 350 359 12 7 0 309 314 308 298 290 280 277 269 260 263 269 268 267 269 271 270 266 265 252 219 195 183 167 152 175 197 150 139 146 165 190 214 219 220 214 223 222 228 262 298 272 251 271 264 249 268 265 265 274 191 251 263 247 273 277 272 270 266 270 272 261 257 263 272 276 280 281 280 279 282 286
266 277 289 293 301 317 323 332 341 344 348 345 347 4 12 358 341 321 318 298 296 298 287 280 269 260 262 263 258 258 257 263 264 254 249 229 198 192 183 165 161 186 166 134 119 118 193 220 231 230 227 165 24 65 143 222 244 251 248 277 278 251 276 277 261 285 342 227 275 287 279 277 273 263 253 252 253 256 261 261 267 272 275 275 275 277 283 289
265 272 282 286 295 310 314 321 331 339 344 342 348 4 1 350 344 335 327 278 287 298 287 275 264 258 261 259 253 252 246 247 256 249 241 218 192 198 187 160 165 154 147 186 191 193 214 237 236 234 223 191 282 61 98 228 250 230 223 253 273 262 277 275 271 320 337 237 277 297 286 282 270 255 248 249 251 262 267 263 263 266 266 267 270 276 282 289
273 276 282 287 297 306 309 316 326 335 339 342 350 359 354 348 347 342 329 279 273 290 279 273 266 261 264 263 256 250 240 238 248 251 239 216 189 192 195 167 147 149 193 208 209 219 229 240 231 219 193 197 235 184 117 258 264 228 208 220 258 258 251 255 284 338 321 281 303 315 296 289 256 245 263 271 264 257 259 261 263 262 260 263 269 275 283 296
281 280 286 293 300 304 308 313 321 332 333 336 341 349 352 349 349 346 334 302 287 284 266 269 287 281 266 271 262 243 234 237 239 243 233 213 200 188 178 174 164 197 211 205 219 243 248 246 187 136 165 185 203 227 199 215 252 264 214 210 237 253 257 262 293 344 342 308 340 7 318 299 60 113 276 298 303 258 250 255 254 253 257 264 272 280 301 326
285 287 290 291 292 297 303 307 312 323 327 327 333 346 349 347 349 346 341 360 306 283 235 241 312 355 317 306 257 189 191 259 239 228 215 206 206 198 165 174 173 213 200 179 215 248 244 244 210 145 151 147 163 236 223 197 239 288 238 210 225 242 255 264 285 328 297 257 297 45 335 285 306 147 245 264 271 274 262 241 246 255 273 283 281 298 328 340
278 283 285 285 288 292 296 300 305 324 333 325 336 344 345 352 354 348 353 11 302 254 114 137 163 22 349 192 148 143 198 305 326 208 200 197 203 201 212 205 159 232 176 143 273 248 195 219 103 115 124 127 158 237 217 173 188 269 239 192 198 222 236 236 230 227 239 282 306 86 156 276 287 237 251 248 215 265 262 253 264 298 313 296 295 324 345 8
271 274 278 281 288 291 292 293 300 325 335 326 340 337 343 357 353 1 32 328 304 97 96 139 127 52 33 153 158 123 16 343 27 176 191 195 202 196 245 225 184 211 181 156 242 254 151 172 175 145 122 154 196 219 179 158 182 249 208 142 159 196 207 175 169 207 257 346 305 248 147 255 279 264 12 39 211 250 259 262 290 323 305 294 304 337 28 52
266 269 273 276 282 284 281 280 286 301 313 322 335 328 339 349 349 28 82 243 323 57 54 27 119 35 53 130 173 288 11 15 52 154 165 190 206 197 298 234 180 196 218 194 233 261 88 177 182 151 138 202 211 207 169 166 194 217 141 98 81 82 79 101 141 143 64 309 256 210 172 236 281 275 97 65 260 249 262 271 284 294 288 288 304 355 63 60
262 265 267 268 273 277 275 272 274 285 299 313 321 324 334 341 22 68 209 236 355 9 34 87 239 326 51 97 323 282 251 351 89 134 124 153 199 208 317 266 141 136 260 289 268 260 297 69 132 173 198 198 166 116 147 165 163 128 113 63 38 37 44 54 47 88 57 284 230 189 188 195 281 287 144 171 236 224 248 290 306 310 307 308 346 56 58 58
262 264 265 266 267 269 272 271 271 276 283 296 313 326 332 349 74 173 232 282 5 288 47 46 312 22 73 74 328 305 128 356 99 129 101 71 181 217 23 322 116 75 348 317 292 286 333 117 220 229 215 164 115 77 27 65 105 101 87 53 12 337 16 26 355 49 183 267 236 192 192 191 234 264 234 243 248 222 221 271 320 330 319 315 14 57 48 57
263 264 264 265 264 263 263 266 269 270 274 288 303 321 7 11 239 208 242 354 347 282 66 15 299 64 88 65 286 273 41 187 138 116 119 81 102 227 219 200 180 358 325 269 279 318 266 220 243 255 207 174 137 96 14 27 70 84 92 93 331 316 350 345 319 71 221 259 265 205 189 222 242 249 254 263 266 245 217 222 258 278 290 295 314 28 43 58
262 262 263 263 261 259 256 257 261 263 273 284 282 347 87 232 243 183 184 287 258 280 85 142 300 127 140 348 269 242 313 207 163 128 150 123 55 276 247 211 171 232 275 233 312 323 299 287 274 93 250 194 166 158 212 212 142 149 155 153 174 224 280 273 253 264 268 275 295 256 196 263 282 274 232 244 263 274 231 232 257 270 278 289 311 16 48 55
263 263 264 262 261 258 253 251 250 252 265 267 218 109 169 243 244 112 180 234 250 321 331 135 351 339 151 257 248 195 221 259 158 136 153 118 84 284 268 234 186 180 248 268 317 268 282 303 224 186 238 177 179 199 182 130 152 184 162 141 169 182 215 244 236 257 270 286 311 275 201 221 258 276 236 234 272 317 315 279 272 273 278 298 358 42 51 48
263 264 262 261 260 257 255 251 244 243 247 229 150 153 234 239 249 155 208 228 257 292 293 316 12 323 298 260 261 216 216 256 123 115 167 169 178 204 219 224 190 162 137 191 281 171 249 276 245 251 262 159 181 231 138 103 167 212 122 119 211 193 194 244 251 232 239 296 283 222 231 231 208 266 271 259 302 321 314 301 285 277 303 29 50 48 42 42
263 265 265 265 260 255 256 251 240 236 227 193 152 228 232 232 219 200 190 177 181 180 315 313 246 251 278 262 294 318 163 216 153 115 221 213 219 215 213 225 185 168 163 166 218 202 233 270 249 32 333 190 203 259 137 141 211 165 117 187 240 165 155 237 268 273 89 257 255 213 250 276 286 285 282 58 43 349 336 336 334 352 40 55 51 44 42 46
265 265 264 263 260 254 249 242 232 227 211 179 213 239 232 235 216 210 191 145 165 153 126 291 239 198 259 271 292 318 92 220 211 170 223 239 251 210 207 254 192 180 189 185 209 214 210 260 239 171 231 236 215 187 130 130 145 135 183 227 274 122 141 166 249 355 243 248 262 250 257 276 294 289 322 33 29 9 355 4 20 30 43 47 42 42 46 48
265 264 259 258 258 251 239 232 222 212 197 178 233 237 220 226 216 205 198 172 175 190 182 242 239 202 234 244 257 207 168 204 181 165 213 234 240 186 172 242 197 186 202 185 193 231 195 258 264 185 204 234 140 156 287 304 170 154 190 203 81 207 217 142 191 214 237 244 255 250 257 265 246 248 293 325 7 39 14 16 31 33 35 35 34 37 39 42
262 265 263 253 250 240 229 222 207 199 192 187 230 230 215 228 229 225 224 217 159 165 204 234 232 252 245 218 249 247 190 192 180 205 223 221 241 198 167 222 200 187 203 172 186 252 163 245 275 188 172 150 67 160 197 233 243 111 92 352 73 180 201 152 183 189 248 252 254 245 255 257 246 243 168 198 97 66 27 35 46 35 34 34 32 32 31 36
237 241 257 219 219 219 205 199 193 191 196 220 224 225 215 230 233 228 229 231 220 196 230 236 207 236 263 256 264 262 215 196 198 225 231 221 262 249 202 207 182 167 171 165 195 235 128 232 252 235 238 342 150 200 186 186 186 134 158 227 219 166 84 282 230 179 208 246 252 250 248 251 262 153 119 98 46 34 32 63 68 42 35 34 31 31 31 32
191 198 235 185 184 185 176 180 191 194 209 233 231 241 249 258 268 242 229 225 226 229 230 220 206 232 267 280 265 235 208 227 214 218 232 233 248 252 264 233 163 151 80 106 205 215 182 232 239 237 246 240 237 221 192 191 187 179 199 203 210 223 252 274 252 191 186 227 228 246 256 249 263 292 80 67 51 42 39 57 68 48 39 34 32 34 33 33
179 189 206 175 165 167 168 176 204 205 209 224 230 246 251 267 273 257 246 223 220 238 239 229 230 233 247 258 253 241 236 240 220 220 239 238 227 236 337 359 69 141 123 177 237 204 145 126 263 249 241 251 260 248 137 208 195 218 243 213 214 219 213 238 251 226 207 223 214 246 259 242 257 305 34 58 61 57 48 49 53 43 37 34 33 34 34 34
186 197 177 162 167 174 175 190 222 198 228 255 252 254 255 273 274 253 255 216 211 237 236 227 236 231 236 251 252 248 243 230 221 231 242 249 241 310 3 358 349 67 63 291 281 71 117 141 225 241 250 278 280 319 51 35 86 134 252 219 205 218 217 230 247 275 254 231 227 248 252 233 277 24 80 82 68 57 51 49 47 37 32 32 32 32 31 29
196 208 191 166 174 183 186 206 211 199 231 251 258 260 258 265 261 254 251 194 199 211 232 265 248 227 235 266 246 236 249 241 240 247 243 237 255 26 27 20 20 29 30 355 318 352 20 194 155 230 280 298 288 291 13 17 47 201 254 245 237 271 285 282 280 298 260 223 228 250 248 210 246 70 85 92 85 72 58 55 57 49 37 34 31 28 25 22
174 218 220 193 191 201 216 236 207 214 220 228 242 250 252 258 253 248 245 229 218 208 206 260 234 195 202 252 219 223 234 220 246 290 301 243 268 19 32 32 44 68 66 33 11 2 329 273 182 276 268 262 272 274 278 48 288 267 300 318 322 293 280 286 276 254 245 215 221 250 266 259 252 5 31 45 85 91 83 69 66 61 51 44 37 29 22 19
116 199 242 211 210 224 247 271 269 242 219 223 232 231 235 241 248 243 236 240 240 222 220 253 239 161 204 224 232 258 247 212 207 239 253 245 265 356 43 56 58 64 103 42 25 36 292 280 237 246 259 259 276 289 8 60 265 268 314 325 325 311 285 284 264 248 271 273 250 251 268 276 279 311 346 351 17 59 80 72 56 57 58 52 43 34 27 22
114 198 132 165 237 237 246 267 285 265 269 302 236 242 245 238 263 274 219 223 279 221 228 248 216 206 242 233 233 258 255 228 214 226 249 259 260 320 25 94 58 40 91 44 17 60 171 278 244 248 264 268 298 308 326 356 280 268 308 304 304 304 291 278 266 272 308 303 275 277 293 290 290 294 316 353 352 1 42 54 41 45 48 44 37 30 25 21
135 196 131 126 249 238 232 262 300 287 282 299 267 278 276 249 246 269 224 317 3 44 19 258 199 228 273 289 302 273 290 299 284 243 245 300 308 342 4 100 65 43 57 25 9 73 165 265 256 265 288 310 322 307 301 306 293 281 281 277 284 285 276 270 269 277 290 278 273 293 291 284 285 280 241 63 349 317 331 343 339 345 8 21 19 15 13 11
165 243 164 158 259 273 182 328 19 355 284 260 235 249 253 256 257 254 298 335 314 342 263 258 285 31 353 345 314 267 291 298 291 284 162 333 282 289 329 281 33 42 44 28 346 15 197 260 278 293 307 305 297 290 292 298 294 287 279 271 271 268 265 267 268 268 265 261 265 274 273 275 284 183 156 145 334 317 315 318 317 309 316 337 351 356 357 355
138 185 213 42 343 262 253 284 353 6 295 240 239 253 250 257 267 273 297 278 268 272 257 262 330 18 8 20 47 267 282 280 270 281 350 80 8 102 320 260 267 14 18 22 324 323 288 293 345 358 311 295 290 286 289 293 290 287 284 275 266 262 262 264 264 263 261 261 265 265 265 270 281 113 187 257 290 308 303 303 305 296 294 309 323 333 340 341
177 195 201 58 13 213 187 232 207 167 257 224 215 257 266 252 264 321 31 276 246 191 122 116 19 2 1 16 20 233 165 94 131 295 335 285 282 297 299 293 355 349 348 1 310 328 318 301 333 335 298 282 286 288 295 309 304 284 274 268 263 260 258 256 256 260 261 264 269 267 267 267 131 139 262 260 256 283 289 292 299 296 287 286 295 312 327 333
207 217 213 144 339 235 152 125 95 166 220 231 208 252 257 98 33 45 216 89 92 95 84 80 37 4 1 293 286 165 142 91 306 296 297 280 272 269 262 261 264 261 250 320 294 264 245 268 288 291 281 279 284 292 321 348 305 277 262 256 256 258 261 261 260 261 256 249 258 265 261 194 174 196 242 266 257 275 293 297 305 309 302 290 288 303 320 328